EW7917 Weather Reports


Display with metric or nautical units.
time (UTC)temp
F
wind
direction
speed
MPH
gust
MPH
rain 1hr
in
rain 24hr
in
rain mn
in
humidity
%
barometer
mb
20200408224612 52 156 0.0 4.0 0.00 0.00 0.00 25 1000.6
20200408224020 52 156 0.0 4.0 0.00 0.00 0.00 25 1000.5
20200408223521 52 82 1.0 4.0 0.00 0.00 0.00 24 1000.4
20200408223046 52 176 1.0 7.0 0.00 0.00 0.00 24 1000.4
20200408222521 53 191 1.0 5.0 0.00 0.00 0.00 24 1000.3
20200408222021 53 84 2.0 5.0 0.00 0.00 0.00 24 1000.3
20200408221537 53 211 1.0 6.0 0.00 0.00 0.00 24 1000.2
20200408221021 53 211 3.0 6.0 0.00 0.00 0.00 23 1000.2
20200408220526 53 248 2.0 5.0 0.00 0.00 0.00 23 1000.2
20200408220107 53 216 2.0 5.0 0.00 0.00 0.00 23 1000.1
20200408215524 53 238 2.0 5.0 0.00 0.00 0.00 25 1000.1
20200408215023 53 234 1.0 5.0 0.00 0.00 0.00 24 1000.1
20200408214543 53 355 1.0 6.0 0.00 0.00 0.00 23 1000.0
20200408214023 53 202 3.0 6.0 0.00 0.00 0.00 24 1000.0
20200408213517 53 205 1.0 8.0 0.00 0.00 0.00 24 1000.0
20200408213105 53 204 2.0 8.0 0.00 0.00 0.00 24 1000.0
20200408212517 53 76 2.0 7.0 0.00 0.00 0.00 25 999.9
20200408212017 53 223 3.0 7.0 0.00 0.00 0.00 25 999.8
20200408211548 53 239 3.0 5.0 0.00 0.00 0.00 26 999.8
20200408211034 53 227 2.0 5.0 0.00 0.00 0.00 26 999.8
20200408210521 53 209 1.0 6.0 0.00 0.00 0.00 26 999.7
20200408210159 53 219 1.0 6.0 0.00 0.00 0.00 26 999.7
20200408205515 54 207 3.0 7.0 0.00 0.00 0.00 26 999.6
20200408205021 54 204 2.0 7.0 0.00 0.00 0.00 26 999.6
20200408204525 54 301 1.0 5.0 0.00 0.00 0.00 27 999.5
20200408204018 54 264 1.0 6.0 0.00 0.00 0.00 29 999.5
20200408203515 54 193 2.0 6.0 0.00 0.00 0.00 26 999.4
20200408203046 54 249 2.0 6.0 0.00 0.00 0.00 28 999.4
20200408202516 54 279 1.0 5.0 0.00 0.00 0.00 27 999.4
20200408202013 54 316 1.0 6.0 0.00 0.00 0.00 30 999.4
20200408201520 54 183 3.0 6.0 0.00 0.00 0.00 30 999.4
20200408201034 54 252 2.0 6.0 0.00 0.00 0.00 28 999.4
20200408200513 55 245 3.0 6.0 0.00 0.00 0.00 28 999.4
20200408200030 55 259 3.0 6.0 0.00 0.00 0.00 30 999.4
20200408195513 55 186 3.0 8.0 0.00 0.00 0.00 29 999.4
20200408195025 56 201 3.0 8.0 0.00 0.00 0.00 27 999.4
20200408194522 56 206 2.0 5.0 0.00 0.00 0.00 29 999.3
20200408194018 56 215 3.0 9.0 0.00 0.00 0.00 28 999.6
20200408193512 55 273 5.0 9.0 0.00 0.00 0.00 28 999.6
20200408193018 55 275 3.0 7.0 0.00 0.00 0.00 28 999.5
20200408192510 55 211 2.0 7.0 0.00 0.00 0.00 28 999.5
20200408192008 55 205 3.0 6.0 0.00 0.00 0.00 29 999.6
20200408191544 54 360 2.0 7.0 0.00 0.00 0.00 30 999.5
20200408191017 54 260 3.0 7.0 0.00 0.00 0.00 28 999.6
20200408190508 53 202 3.0 7.0 0.00 0.00 0.00 29 999.6
20200408190008 53 233 2.0 7.0 0.00 0.00 0.00 30 999.7
20200408185512 53 198 3.0 7.0 0.00 0.00 0.00 29 999.6
20200408185012 53 248 3.0 7.0 0.00 0.00 0.00 29 999.7
20200408184610 53 215 2.0 5.0 0.00 0.00 0.00 29 999.7
20200408184006 53 228 1.0 6.0 0.00 0.00 0.00 28 999.7
20200408183507 54 229 2.0 6.0 0.00 0.00 0.00 28 999.8
20200408183016 54 199 2.0 6.0 0.00 0.00 0.00 29 999.8
20200408182521 54 157 1.0 7.0 0.00 0.00 0.00 30 999.7
20200408182010 54 230 4.0 7.0 0.00 0.00 0.00 30 999.7
20200408181515 54 255 3.0 7.0 0.00 0.00 0.00 28 999.6
20200408181006 55 278 2.0 9.0 0.00 0.00 0.00 29 999.6
20200408180505 55 234 2.0 9.0 0.00 0.00 0.00 27 999.6
20200408180005 55 244 2.0 7.0 0.00 0.00 0.00 29 999.6
20200408175506 55 257 4.0 7.0 0.00 0.00 0.00 29 999.7
20200408175007 55 196 2.0 6.0 0.00 0.00 0.00 30 999.7
20200408174507 54 192 2.0 7.0 0.00 0.00 0.00 32 999.7
20200408174004 54 312 2.0 7.0 0.00 0.00 0.00 31 999.7
20200408173505 54 284 2.0 7.0 0.00 0.00 0.00 30 999.7
20200408173007 55 262 3.0 9.0 0.00 0.00 0.00 30 999.7
20200408172505 55 274 4.0 9.0 0.00 0.00 0.00 32 999.6
20200408172002 55 255 2.0 7.0 0.00 0.00 0.00 31 999.7
20200408171938 55 301 3.0 7.0 0.00 0.00 0.00 33 999.7
20200408171101 54 273 3.0 7.0 0.00 0.00 0.00 32 999.8
20200408170613 54 180 3.0 6.0 0.00 0.00 0.00 35 999.7
20200408170142 53 360 1.0 6.0 0.00 0.00 0.00 36 999.7
20200408165557 53 257 3.0 6.0 0.00 0.00 0.00 34 999.8
20200408165057 53 360 3.0 5.0 0.00 0.00 0.00 36 999.8
20200408164657 52 191 4.0 5.0 0.00 0.00 0.00 37 999.8
20200408164103 52 257 2.0 6.0 0.00 0.00 0.00 39 999.8
20200408163549 53 0 2.0 5.0 0.00 0.00 0.00 38 999.8
20200408163508 52 360 3.0 6.0 0.00 0.00 0.00 38 999.8
20200408163004 52 256 3.0 7.0 0.00 0.00 0.00 40 999.9
20200408162559 52 275 3.0 7.0 0.00 0.00 0.00 40 999.9
20200408162002 52 360 3.0 8.0 0.00 0.00 0.00 40 1000.0
20200408161559 53 0 3.0 7.0 0.00 0.00 0.00 38 1000.0
20200408161002 52 273 2.0 7.0 0.00 0.00 0.00 37 1000.1
20200408160557 53 220 2.0 5.0 0.00 0.00 0.00 35 1000.1
20200408160007 54 247 3.0 5.0 0.00 0.00 0.00 34 1000.3
20200408155530 53 265 1.0 5.0 0.00 0.00 0.00 34 1000.3
20200408155008 52 266 2.0 6.0 0.00 0.00 0.00 39 1000.4
20200408154550 52 266 3.0 5.0 0.00 0.00 0.00 37 1000.4
20200408154003 51 241 4.0 6.0 0.00 0.00 0.00 38 1000.5
20200408153552 52 238 2.0 4.0 0.00 0.00 0.00 37 1000.4
20200408152616 51 82 1.0 4.0 0.00 0.00 0.00 39 1000.5
20200408152501 50 307 3.0 5.0 0.00 0.00 0.00 41 1000.5
20200408151633 49 300 0.0 3.0 0.00 0.00 0.00 41 1000.6
20200408151518 48 300 1.0 3.0 0.00 0.00 0.00 41 1000.6
20200408150652 48 301 0.0 4.0 0.00 0.00 0.00 42 1000.7
20200408150503 48 267 1.0 4.0 0.00 0.00 0.00 41 1000.7
20200408145715 49 328 1.0 4.0 0.00 0.00 0.00 43 1000.9
20200408145507 48 328 1.0 5.0 0.00 0.00 0.00 44 1000.8
20200408144729 48 319 0.0 3.0 0.00 0.00 0.00 47 1000.9
20200408144502 47 360 0.0 4.0 0.00 0.00 0.00 47 1001.0
20200408144003 46 360 1.0 3.0 0.00 0.00 0.00 46 1001.0
20200408143754 46 0 0.0 4.0 0.00 0.00 0.00 47 1000.9
20200408142737 45 0 0.0 4.0 0.00 0.00 0.00 48 1000.9
20200408142503 44 360 1.0 5.0 0.00 0.00 0.00 48 1001.0
20200408141710 44 0 0.0 4.0 0.00 0.00 0.00 52 1001.0
20200408141502 43 360 1.0 5.0 0.00 0.00 0.00 52 1001.2
20200408140701 42 0 0.0 4.0 0.00 0.00 0.00 53 1001.1
20200408140506 42 360 0.0 4.0 0.00 0.00 0.00 55 1001.1
20200408135631 42 0 1.0 4.0 0.00 0.00 0.00 53 1001.2
20200408135503 41 30 1.0 5.0 0.00 0.00 0.00 54 1001.2
20200408134621 41 47 0.0 4.0 0.00 0.00 0.00 56 1001.0
20200408134506 41 46 0.0 4.0 0.00 0.00 0.00 56 1001.1
20200408133547 41 48 1.0 4.0 0.00 0.00 0.00 56 1001.1
20200408133509 40 46 2.0 5.0 0.00 0.00 0.00 56 1001.2
20200408133002 40 51 1.0 5.0 0.00 0.00 0.00 56 1001.2
20200408132541 41 0 1.0 4.0 0.00 0.00 0.00 56 1001.2
20200408132003 40 360 1.0 5.0 0.00 0.00 0.00 57 1001.1
20200408131537 40 49 0.0 4.0 0.00 0.00 0.00 58 1001.0
20200408131003 40 72 0.0 2.0 0.00 0.00 0.00 57 1001.1
20200408130556 40 61 0.0 4.0 0.00 0.00 0.00 58 1001.1
20200408130003 39 46 1.0 5.0 0.00 0.00 0.00 57 1001.1
20200408125533 40 0 0.0 4.0 0.00 0.00 0.00 59 1001.0
20200408125003 39 360 0.0 5.0 0.00 0.00 0.00 59 1001.1
20200408124520 39 53 1.0 4.0 0.00 0.00 0.00 58 1001.0
20200408124005 39 34 1.0 4.0 0.00 0.00 0.00 59 1001.1
20200408123544 39 0 0.0 1.0 0.00 0.00 0.00 59 1001.1
20200408123008 39 32 0.0 2.0 0.00 0.00 0.00 59 1001.1
20200408122513 39 43 0.0 4.0 0.00 0.00 0.00 59 1001.2
20200408122008 39 42 1.0 6.0 0.00 0.00 0.00 58 1001.1
20200408121508 38 68 0.0 6.0 0.00 0.00 0.00 61 1001.2
20200408121007 38 161 0.0 5.0 0.00 0.00 0.00 60 1001.3
20200408120506 38 19 1.0 6.0 0.00 0.00 0.00 60 1001.3
20200408120006 38 35 1.0 6.0 0.00 0.00 0.00 59 1001.3
20200408115505 38 28 1.0 4.0 0.00 0.00 0.00 59 1001.4
20200408115008 38 65 1.0 7.0 0.00 0.00 0.00 59 1001.2
20200408114505 38 34 1.0 7.0 0.00 0.00 0.00 59 1001.2
20200408114003 38 53 1.0 6.0 0.00 0.00 0.00 60 1001.3
20200408113504 38 33 2.0 6.0 0.00 0.00 0.00 58 1001.3
20200408113233 38 32 1.0 4.0 0.00 0.00 0.00 58 1001.2
20200408112510 38 34 2.0 5.0 0.00 0.00 0.00 60 1001.2
20200408112236 38 48 1.0 3.0 0.00 0.00 0.00 60 1001.1
20200408111504 37 71 1.0 3.0 0.00 0.00 0.00 62 1001.2
20200408111244 37 31 1.0 3.0 0.00 0.00 0.00 63 1001.2
20200408110502 37 30 1.0 4.0 0.00 0.00 0.00 64 1001.1
20200408110223 37 30 0.0 1.0 0.00 0.00 0.00 65 1001.0
20200408105207 37 36 0.0 1.0 0.00 0.00 0.00 65 1000.9
20200408105002 36 36 1.0 2.0 0.00 0.00 0.00 65 1001.0
20200408104230 37 37 0.0 1.0 0.00 0.00 0.00 64 1001.0
20200408104003 36 360 1.0 2.0 0.00 0.00 0.00 64 1001.0
20200408103155 36 0 0.0 2.0 0.00 0.00 0.00 63 1000.9
20200408103003 36 360 1.0 2.0 0.00 0.00 0.00 63 1000.9
20200408102154 36 0 0.0 2.0 0.00 0.00 0.00 61 1000.8
20200408102006 36 27 1.0 3.0 0.00 0.00 0.00 62 1000.9
20200408101147 37 108 0.0 0.0 0.00 0.00 0.00 62 1000.9
20200408101006 36 360 0.0 2.0 0.00 0.00 0.00 61 1001.0
20200408100208 37 0 0.0 1.0 0.00 0.00 0.00 60 1000.9
20200408100040 36 108 1.0 2.0 0.00 0.00 0.00 60 1000.9
20200408095519 36 107 0.0 2.0 0.00 0.00 0.00 60 1000.9
20200408095013 37 107 1.0 2.0 0.00 0.00 0.00 60 1000.9
20200408094525 37 107 1.0 2.0 0.00 0.00 0.00 59 1000.9
20200408094029 37 360 1.0 2.0 0.00 0.00 0.00 60 1000.9
20200408093512 37 109 1.0 2.0 0.00 0.00 0.00 60 1001.0
20200408093049 37 119 0.0 4.0 0.00 0.00 0.00 61 1001.0
20200408092523 37 118 1.0 3.0 0.00 0.00 0.00 59 1000.9
20200408091007 38 120 1.0 2.0 0.00 0.00 0.00 56 1001.1
20200408090510 38 121 1.0 2.0 0.00 0.00 0.00 58 1001.1
20200408090006 38 120 0.0 1.0 0.00 0.00 0.00 57 1001.2
20200408085003 38 119 0.0 0.0 0.00 0.00 0.00 57 1001.4
20200408084512 38 119 0.0 0.0 0.00 0.00 0.00 57 1001.4
20200408084002 38 360 0.0 0.0 0.00 0.00 0.00 55 1001.5
20200408083501 38 360 0.0 0.0 0.00 0.00 0.00 58 1001.6
20200408082600 38 360 0.0 0.0 0.00 0.00 0.00 59 1001.7
20200408082059 38 360 0.0 0.0 0.00 0.00 0.00 57 1001.8
20200408082003 38 360 0.0 0.0 0.00 0.00 0.00 57 1001.8
20200408081656 38 360 0.0 0.0 0.00 0.00 0.00 57 1001.9
20200408081059 38 119 0.0 0.0 0.00 0.00 0.00 60 1002.0
20200408080611 39 119 0.0 0.0 0.00 0.00 0.00 54 1002.0
20200408080126 39 119 0.0 0.0 0.00 0.00 0.00 54 1002.1
20200408075635 39 119 0.0 1.0 0.00 0.00 0.00 51 1002.1
20200408075103 39 119 0.0 2.0 0.00 0.00 0.00 52 1002.2
20200408074603 39 119 1.0 2.0 0.00 0.00 0.00 53 1002.2
20200408073554 39 119 0.0 2.0 0.00 0.00 0.00 54 1002.2
20200408073143 39 119 0.0 1.0 0.00 0.00 0.00 54 1002.2
20200408072554 39 119 0.0 0.0 0.00 0.00 0.00 53 1002.1
20200408072114 39 119 0.0 0.0 0.00 0.00 0.00 53 1002.1
20200408071623 39 119 0.0 1.0 0.00 0.00 0.00 52 1002.3
20200408071052 39 119 0.0 2.0 0.00 0.00 0.00 52 1002.4
20200408070100 39 119 0.0 1.0 0.00 0.00 0.00 54 1002.5
20200408065550 39 119 0.0 1.0 0.00 0.00 0.00 54 1002.7
20200408065049 39 119 0.0 2.0 0.00 0.00 0.00 53 1002.7
20200408064610 39 119 0.0 2.0 0.00 0.00 0.00 54 1002.9
20200408064127 39 119 0.0 1.0 0.00 0.00 0.00 52 1003.0
20200408063547 39 119 0.0 0.0 0.00 0.00 0.00 51 1003.0
20200408063104 39 119 0.0 0.0 0.00 0.00 0.00 50 1003.2
20200408062558 39 119 0.0 1.0 0.00 0.00 0.00 52 1003.3
20200408062049 39 119 0.0 1.0 0.00 0.00 0.00 52 1003.4
20200408061553 39 119 0.0 1.0 0.00 0.00 0.00 52 1003.3
20200408061044 39 119 0.0 1.0 0.00 0.00 0.00 51 1003.4
20200408060550 39 119 0.0 0.0 0.00 0.00 0.00 50 1003.5
20200408060140 39 119 0.0 0.0 0.00 0.00 0.00 50 1003.6
20200408055541 39 119 0.0 0.0 0.00 0.00 0.00 51 1003.6
20200408055041 39 119 0.0 2.0 0.00 0.00 0.00 53 1003.6
20200408054616 39 119 0.0 2.0 0.00 0.00 0.00 53 1003.8
20200408054039 39 119 0.0 1.0 0.00 0.00 0.00 53 1003.8
20200408053546 39 119 0.0 1.0 0.00 0.00 0.00 52 1004.0
20200408053118 39 119 0.0 1.0 0.00 0.00 0.00 53 1004.0
20200408052537 39 119 0.0 1.0 0.00 0.00 0.00 52 1004.1
20200408052037 39 119 0.0 1.0 0.00 0.00 0.00 51 1004.2
20200408051606 39 119 0.0 2.0 0.00 0.00 0.00 52 1004.0
20200408051037 39 119 0.0 2.0 0.00 0.00 0.00 52 1004.1
20200408050552 39 119 0.0 2.0 0.00 0.00 0.00 51 1004.2
20200408050045 39 119 0.0 1.0 0.00 0.00 0.00 51 1004.1
20200408045555 39 119 0.0 1.0 0.00 0.00 0.00 52 1004.1
20200408045129 39 119 0.0 1.0 0.00 0.00 0.00 51 1004.3
20200408044556 39 119 0.0 1.0 0.00 0.00 0.00 51 1004.3
20200408044034 39 119 0.0 1.0 0.00 0.00 0.00 50 1004.5
20200408043546 39 119 0.0 0.0 0.00 0.00 0.00 48 1004.6
20200408043105 39 119 0.0 2.0 0.00 0.00 0.00 48 1004.9
20200408042529 39 119 0.0 2.0 0.00 0.00 0.00 49 1004.9
20200408042042 39 119 1.0 2.0 0.00 0.00 0.00 51 1005.0
20200408041544 39 119 0.0 2.0 0.00 0.00 0.00 50 1004.9
20200408041026 39 119 0.0 2.0 0.00 0.00 0.00 50 1005.1
20200408040526 39 119 0.0 2.0 0.00 0.00 0.00 50 1005.1
20200408040027 39 119 0.0 2.0 0.00 0.00 0.00 50 1005.1
20200408035523 39 119 0.0 2.0 0.00 0.00 0.00 51 1005.1
20200408035041 39 119 0.0 1.0 0.00 0.00 0.00 51 1005.1
20200408034553 39 119 0.0 1.0 0.00 0.00 0.00 52 1005.2
20200408034022 39 119 0.0 1.0 0.00 0.00 0.00 51 1005.2
20200408033522 39 119 0.0 1.0 0.00 0.00 0.00 50 1005.3
20200408033025 39 119 0.0 1.0 0.00 0.00 0.00 50 1005.5
20200408032521 39 119 0.0 1.0 0.00 0.00 0.00 49 1005.4
20200408032027 39 119 0.0 1.0 0.00 0.00 0.00 50 1005.4
20200408031549 39 119 0.0 1.0 0.00 0.00 0.00 50 1005.5
20200408031020 39 119 0.0 2.0 0.00 0.00 0.00 48 1005.5
20200408030026 39 119 0.0 1.0 0.00 0.00 0.00 50 1005.6
20200408025518 39 119 0.0 1.0 0.00 0.00 0.00 48 1005.7
20200408025017 40 119 0.0 1.0 0.00 0.00 0.00 47 1005.7
20200408024531 40 119 0.0 1.0 0.00 0.00 0.00 47 1005.7
20200408024018 40 119 0.0 2.0 0.00 0.00 0.00 50 1005.8
20200408023523 40 360 0.0 2.0 0.00 0.00 0.00 48 1005.8
20200408023020 40 360 0.0 1.0 0.00 0.00 0.00 47 1005.8
20200408022516 41 121 0.0 1.0 0.00 0.00 0.00 47 1005.8
20200408022027 41 120 0.0 1.0 0.00 0.00 0.00 49 1005.9
20200408021518 41 119 0.0 1.0 0.00 0.00 0.00 50 1005.9
20200408021016 42 119 0.0 1.0 0.00 0.00 0.00 45 1005.9
20200408020516 42 119 0.0 2.0 0.00 0.00 0.00 46 1006.0
20200408020051 42 119 0.0 2.0 0.00 0.00 0.00 46 1006.0
20200408015515 42 119 0.0 2.0 0.00 0.00 0.00 45 1006.0
20200408015016 42 119 0.0 1.0 0.00 0.00 0.00 44 1006.0
20200408014526 42 119 0.0 2.0 0.00 0.00 0.00 43 1006.1
20200408014025 42 119 0.0 2.0 0.00 0.00 0.00 42 1006.2
20200408013520 42 119 1.0 2.0 0.00 0.00 0.00 44 1006.1
20200408013040 42 119 0.0 2.0 0.00 0.00 0.00 47 1006.1
20200408012514 42 117 0.0 2.0 0.00 0.00 0.00 44 1006.2
20200408012026 42 34 0.0 2.0 0.00 0.00 0.00 44 1006.3
20200408011527 42 36 0.0 2.0 0.00 0.00 0.00 43 1006.3
20200408011013 42 360 0.0 2.0 0.00 0.00 0.00 43 1006.3
20200408010513 43 360 0.0 2.0 0.00 0.00 0.00 44 1006.3
20200408010032 43 34 0.0 2.0 0.00 0.00 0.00 44 1006.3
20200408005514 43 36 0.0 1.0 0.00 0.00 0.00 45 1006.3
20200408005012 43 360 0.0 0.0 0.00 0.00 0.00 47 1006.4
20200408004526 44 30 0.0 2.0 0.00 0.00 0.00 47 1006.4
20200408004012 44 30 0.0 2.0 0.00 0.00 0.00 47 1006.3
20200408003512 44 30 0.0 2.0 0.00 0.00 0.00 39 1006.3
20200408003023 44 30 0.0 2.0 0.00 0.00 0.00 42 1006.3
20200408002512 45 30 0.0 1.0 0.00 0.00 0.00 42 1006.3
20200408002038 45 30 0.0 1.0 0.00 0.00 0.00 41 1006.2
20200408001516 45 30 0.0 4.0 0.00 0.00 0.00 40 1006.3
20200408000511 46 30 0.0 1.0 0.00 0.00 0.00 39 1006.2
20200408000018 46 30 0.0 2.0 0.00 0.00 0.00 40 1006.2
20200407235511 47 30 0.0 2.0 0.00 0.00 0.00 39 1006.1
20200407235011 47 30 0.0 1.0 0.00 0.00 0.00 39 1006.1
20200407234515 48 30 0.0 1.0 0.00 0.00 0.00 39 1006.2
20200407234019 48 360 0.0 1.0 0.00 0.00 0.00 36 1006.1
20200407233511 49 360 0.0 2.0 0.00 0.00 0.00 35 1006.1
20200407233037 49 360 0.0 2.0 0.00 0.00 0.00 35 1006.0
20200407232513 49 360 0.0 2.0 0.00 0.00 0.00 32 1006.0
20200407232010 50 360 1.0 2.0 0.00 0.00 0.00 31 1005.9
20200407231509 50 360 1.0 2.0 0.00 0.00 0.00 30 1005.9
20200407231009 50 360 0.0 4.0 0.00 0.00 0.00 31 1005.9
20200407230511 51 360 0.0 4.0 0.00 0.00 0.00 31 1005.9
20200407230042 51 21 0.0 5.0 0.00 0.00 0.00 30 1005.9
20200407225508 51 5 1.0 5.0 0.00 0.00 0.00 29 1005.9
20200407225008 51 61 1.0 6.0 0.00 0.00 0.00 29 1005.9